Location: Hoyos del Collado
(40.3594°N, 5.2003°W)
Time: 11:01:15
(UTC+00:00)

IRS-1C Rocket - Pass Details

Date: 18 April 2024
Orbit: 799 x 806 km, 98.8° (Epoch: 21 May)

Event Time Altitude Azimuth Distance (km) Brightness Sun altitude
Exits shadow 21:23:39 51° 184° (S) 1,009 4.3 -24.2°
Maximum altitude 21:24:59 76° 256° (WSW) 832 4.1 -24.4°
Drops below altitude 10° 21:30:17 10° 343° (NNW) 2,395 7.3 -25.2°
Sets 21:32:38 0° 345° (NNW) 3,329 8.2 -25.5°
